map of CNX home
Great Circle Mapper logo
CNX - Airport
Location
City:  Chiang Mai, Chiang Mai, Thailand
Name:Chiang Mai International Airport
ICAO:VTCC
IATA:CNX

Details
Type:Airport (Aerodrome, Airfield)
Use:Public/Civil, Military, International (customs port of entry)
Latitude:1846'01"N (18.766847)
Longitude:9857'46"E (98.962644)
Datum:WGS 1984
Elevation:1036 ft (316 m)
Variation:0.75W (WMM2015 magnetic declination)
0.01 annual change
Runways:1
Longest:10171 × 148 ft (3100 × 45 m), paved

Time
Time Zone:UTC+7
Local Time:

Weather
METAR:VTCC 261830Z 24004KT 9999 FEW035 27/23 Q1009 A2981 NOSIG
TAF:VTCC 261700Z 2618/2724 22005KT 9999 SCT035
TEMPO 2709/2714 VRB15G25KT 5000 TSRA FEW025CB BKN030

Related Locations
Nearby:
Farthest:SJA: 11988 mi / 19293 km
San Juan de Marcona [San Juan de Marcona Airport], ICA, PE

Find:

   beyond  
but within

Other Information
Maps:
NOTAMs:
Links:
Sources:

  
flag of Thailand   

Sectional Chart

Flight Planning
at skyvector.com

Satellite Image

Google Maps Satellite view

 

Copyright © 2004-2016 Karl L. Swartz. All rights reserved.
The Great Circle Mapper name and logo are trademarks of the Great Circle Mapper.
All other trademarks mentioned herein belong to their respective owners.
Please see credits for attibutions and further copyright information.

  Follow gcmap on Facebook Follow gcmap on Twitter Follow gcmap on Google+ GCmap on LinkedIn

hCard Microformat

Geo Microformat